AAL3305 KTPA-KPHL

Flight info

Callsign AAL3305
Flight time N/A
Altitude 35000
Route BAYPO2 CAMJO Q99 PEETT BBDOL PAATS4
Aircraft B738/M-SDE2E3FGHIRWXY/LB1

Departure

Time 2026-05-06 22:22
Airport Tampa International Airport (KTPA)

Arrival

Time N/A
Airport Philadelphia International Airport (KPHL)
Time Latitude Longitude Altitude Speed Heading
2026-05-06 21:46 27.97993 -82.53889 29 ft 0 kts 91°
2026-05-06 21:59 27.97993 -82.53900 29 ft 2 kts 91°
2026-05-06 21:59 27.97994 -82.53918 29 ft 2 kts 91°
2026-05-06 21:59 27.97994 -82.53928 29 ft 2 kts 88°
2026-05-06 22:00 27.97990 -82.53945 29 ft 2 kts 63°
2026-05-06 22:00 27.97982 -82.53959 29 ft 2 kts 44°
2026-05-06 22:00 27.97970 -82.53969 29 ft 2 kts 24°
2026-05-06 22:00 27.97956 -82.53974 29 ft 1 kts
2026-05-06 22:01 27.97950 -82.53974 29 ft 1 kts 359°
2026-05-06 22:01 27.97947 -82.53974 29 ft 0 kts
2026-05-06 22:16 27.97965 -82.53973 29 ft 6 kts
2026-05-06 22:16 27.98009 -82.53973 29 ft 5 kts
2026-05-06 22:17 27.98042 -82.53971 29 ft 4 kts
2026-05-06 22:17 27.98069 -82.53970 29 ft 3 kts
2026-05-06 22:17 27.98091 -82.53970 29 ft 3 kts
2026-05-06 22:17 27.98115 -82.53969 29 ft 3 kts
2026-05-06 22:18 27.98139 -82.53967 29 ft 3 kts
2026-05-06 22:18 27.98163 -82.53966 29 ft 3 kts
2026-05-06 22:18 27.98185 -82.53966 29 ft 3 kts
2026-05-06 22:18 27.98206 -82.53965 29 ft 2 kts
2026-05-06 22:19 27.98234 -82.53964 29 ft 6 kts
2026-05-06 22:19 27.98328 -82.53962 29 ft 19 kts
2026-05-06 22:19 27.98510 -82.53957 29 ft 30 kts 360°
2026-05-06 22:19 27.98714 -82.53947 29 ft 28 kts
2026-05-06 22:20 27.98907 -82.53941 29 ft 27 kts
2026-05-06 22:20 27.99090 -82.53935 29 ft 25 kts
2026-05-06 22:20 27.99246 -82.53939 29 ft 20 kts 357°
2026-05-06 22:20 27.99339 -82.53996 29 ft 11 kts 284°
2026-05-06 22:21 27.99343 -82.54022 29 ft 0 kts 277°
2026-05-06 22:21 27.99340 -82.54095 29 ft 18 kts 251°
2026-05-06 22:21 27.99239 -82.54137 29 ft 16 kts 182°
2026-05-06 22:22 27.98909 -82.54150 29 ft 87 kts 181°
2026-05-06 22:22 27.98039 -82.54173 29 ft 158 kts 182°
2026-05-06 22:22 27.96775 -82.54224 155 ft 202 kts 181°
2026-05-06 22:22 27.95404 -82.54192 1188 ft 197 kts 174°
2026-05-06 22:23 27.94012 -82.54105 1952 ft 205 kts 177°
2026-05-06 22:23 27.92543 -82.54078 2490 ft 220 kts 189°
2026-05-06 22:23 27.91055 -82.54669 3019 ft 239 kts 202°
2026-05-06 22:23 27.89476 -82.55415 3638 ft 254 kts 198°
2026-05-06 22:24 27.87772 -82.56163 4195 ft 272 kts 208°
2026-05-06 22:24 27.86379 -82.57616 4979 ft 281 kts 237°
2026-05-06 22:24 27.85623 -82.59641 5814 ft 286 kts 254°
2026-05-06 22:24 27.85127 -82.61816 6703 ft 288 kts 256°
2026-05-06 22:25 27.84699 -82.63998 7550 ft 290 kts 265°
2026-05-06 22:25 27.84893 -82.66254 8415 ft 289 kts 290°
2026-05-06 22:25 27.85912 -82.68152 9264 ft 289 kts 315°
2026-05-06 22:25 27.87444 -82.69573 10085 ft 290 kts 324°
2026-05-06 22:26 27.89134 -82.70873 10672 ft 301 kts 331°
2026-05-06 22:26 27.91151 -82.71615 11139 ft 315 kts 354°
2026-05-06 22:26 27.93375 -82.71395 11595 ft 330 kts 14°
2026-05-06 22:26 27.95575 -82.70441 11985 ft 347 kts 22°
2026-05-06 22:27 27.97822 -82.69257 12353 ft 362 kts 24°
2026-05-06 22:27 28.00131 -82.68018 12694 ft 377 kts 24°
2026-05-06 22:27 28.02574 -82.66717 13069 ft 390 kts 23°
2026-05-06 22:27 28.05012 -82.65427 13711 ft 394 kts 23°
2026-05-06 22:28 28.07515 -82.64105 14336 ft 398 kts 23°
2026-05-06 22:28 28.10021 -82.62785 14958 ft 402 kts 23°
2026-05-06 22:28 28.12591 -82.61430 15609 ft 405 kts 22°
2026-05-06 22:28 28.15130 -82.60104 16183 ft 409 kts 21°
2026-05-06 22:29 28.17797 -82.58890 16757 ft 411 kts 17°
2026-05-06 22:29 28.20574 -82.58076 17319 ft 413 kts
2026-05-06 22:29 28.23439 -82.57801 17903 ft 414 kts 359°
2026-05-06 22:29 28.26325 -82.57787 18454 ft 417 kts 356°
2026-05-06 22:30 28.29217 -82.57856 19019 ft 419 kts 355°
2026-05-06 22:30 28.32157 -82.57945 19604 ft 422 kts 355°
2026-05-06 22:30 28.35079 -82.58035 20136 ft 425 kts 354°
2026-05-06 22:30 28.38059 -82.58123 20718 ft 427 kts 354°
2026-05-06 22:31 28.41042 -82.58203 21214 ft 431 kts 354°
2026-05-06 22:31 28.44032 -82.58278 21762 ft 433 kts 354°
2026-05-06 22:31 28.47039 -82.58352 22256 ft 435 kts 354°
2026-05-06 22:31 28.50092 -82.58428 22782 ft 438 kts 353°
2026-05-06 22:32 28.53132 -82.58504 23242 ft 442 kts 353°
2026-05-06 22:32 28.56234 -82.58582 23752 ft 444 kts 353°
2026-05-06 22:32 28.59323 -82.58660 24175 ft 448 kts 353°
2026-05-06 22:32 28.62440 -82.58740 24620 ft 451 kts 353°
2026-05-06 22:33 28.65594 -82.58820 25105 ft 452 kts 353°
2026-05-06 22:33 28.68732 -82.59034 25483 ft 454 kts 349°
2026-05-06 22:33 28.71887 -82.59425 25951 ft 454 kts 347°
2026-05-06 22:33 28.74987 -82.59871 26355 ft 456 kts 347°
2026-05-06 22:34 28.78182 -82.60341 26735 ft 459 kts 347°
2026-05-06 22:34 28.81347 -82.60802 27177 ft 460 kts 347°
2026-05-06 22:34 28.84512 -82.61252 27852 ft 456 kts 347°
2026-05-06 22:34 28.87660 -82.61697 28374 ft 455 kts 347°
2026-05-06 22:35 28.90765 -82.62135 28839 ft 455 kts 346°
2026-05-06 22:35 28.93900 -82.62576 29420 ft 452 kts 346°
2026-05-06 22:35 28.97032 -82.63017 29921 ft 451 kts 346°
2026-05-06 22:35 29.00101 -82.63447 30473 ft 448 kts 346°
2026-05-06 22:36 29.03213 -82.63882 31025 ft 444 kts 346°
2026-05-06 22:36 29.06287 -82.64313 31494 ft 443 kts 346°
2026-05-06 22:36 29.09295 -82.64735 32006 ft 440 kts 346°
2026-05-06 22:36 29.12360 -82.65166 32451 ft 438 kts 346°
2026-05-06 22:37 29.15372 -82.65590 32917 ft 436 kts 346°
2026-05-06 22:37 29.18401 -82.66016 33399 ft 434 kts 346°
2026-05-06 22:37 29.21435 -82.66444 33816 ft 434 kts 346°
2026-05-06 22:37 29.24413 -82.66865 34195 ft 434 kts 346°
2026-05-06 22:38 29.27442 -82.67292 34595 ft 433 kts 346°
2026-05-06 22:38 29.30449 -82.67715 34950 ft 433 kts 346°
2026-05-06 22:38 29.36541 -82.68578 35014 ft 436 kts 346°
2026-05-06 22:39 29.42559 -82.69300 35017 ft 435 kts 350°
2026-05-06 22:39 29.48624 -82.69355 35017 ft 439 kts 352°
2026-05-06 22:40 29.54747 -82.69280 35013 ft 439 kts 353°
2026-05-06 22:40 29.60840 -82.69222 35012 ft 439 kts 352°
2026-05-06 22:41 29.70011 -82.69154 35011 ft 439 kts 352°
2026-05-06 22:42 29.76103 -82.69113 35010 ft 439 kts 352°
2026-05-06 22:42 29.82239 -82.69069 35011 ft 439 kts 352°
2026-05-06 22:43 29.88350 -82.69029 35007 ft 436 kts 352°
2026-05-06 22:43 29.94446 -82.68994 35017 ft 438 kts 352°
2026-05-06 22:44 30.00595 -82.68958 35019 ft 440 kts 352°
2026-05-06 22:44 30.06728 -82.68917 35024 ft 440 kts 352°
2026-05-06 22:45 30.12871 -82.68880 35023 ft 440 kts 352°
2026-05-06 22:45 30.18995 -82.68842 35021 ft 439 kts 352°
2026-05-06 22:46 30.25126 -82.68802 35022 ft 437 kts 352°
2026-05-06 22:46 30.31210 -82.68764 35017 ft 439 kts 352°
2026-05-06 22:47 30.37354 -82.68727 35012 ft 440 kts 352°
2026-05-06 22:47 30.43443 -82.68687 35008 ft 439 kts 351°
2026-05-06 22:48 30.49642 -82.68536 35007 ft 444 kts 356°
2026-05-06 22:48 30.55817 -82.67545 35001 ft 450 kts
2026-05-06 22:49 30.62018 -82.66263 35005 ft 452 kts
2026-05-06 22:49 30.68190 -82.64958 34999 ft 451 kts
2026-05-06 22:50 30.74410 -82.63639 34997 ft 454 kts
2026-05-06 22:50 30.80607 -82.62312 34996 ft 453 kts
2026-05-06 22:51 30.86828 -82.60980 34997 ft 451 kts
2026-05-06 22:51 30.93000 -82.59663 34994 ft 455 kts
2026-05-06 22:52 30.99224 -82.58329 34995 ft 452 kts
2026-05-06 22:52 31.05407 -82.56901 34993 ft 456 kts
2026-05-06 22:53 31.11536 -82.54488 34992 ft 472 kts 15°
2026-05-06 22:53 31.17427 -82.51083 34994 ft 475 kts 18°
2026-05-06 22:54 31.23320 -82.47480 34993 ft 476 kts 18°
2026-05-06 22:54 31.29176 -82.43900 34995 ft 475 kts 18°
2026-05-06 22:55 31.35030 -82.40324 34992 ft 476 kts 18°
2026-05-06 22:55 31.40927 -82.36727 34993 ft 476 kts 18°
2026-05-06 22:56 31.46792 -82.33141 34989 ft 475 kts 18°
2026-05-06 22:56 31.52709 -82.29530 34988 ft 479 kts 18°
2026-05-06 22:57 31.58619 -82.25909 34979 ft 474 kts 18°
2026-05-06 22:57 31.64476 -82.22314 34984 ft 477 kts 18°
2026-05-06 22:58 31.70392 -82.18683 34980 ft 478 kts 18°
2026-05-06 22:58 31.76240 -82.15081 34980 ft 475 kts 18°
2026-05-06 22:59 31.82146 -82.11448 34973 ft 479 kts 18°
2026-05-06 22:59 31.88053 -82.07803 34981 ft 475 kts 18°
2026-05-06 23:00 31.93903 -82.04195 34994 ft 479 kts 18°
2026-05-06 23:00 31.99841 -82.00525 34998 ft 479 kts 18°
2026-05-06 23:01 32.05708 -81.96877 35001 ft 472 kts 18°
2026-05-06 23:01 32.11537 -81.93265 35000 ft 479 kts 18°
2026-05-06 23:02 32.17475 -81.89627 34990 ft 479 kts 17°
2026-05-06 23:02 32.23430 -81.86156 34997 ft 475 kts 16°
2026-05-06 23:03 32.29363 -81.82693 34994 ft 474 kts 17°
2026-05-06 23:03 32.35254 -81.79237 34991 ft 475 kts 16°
2026-05-06 23:04 32.41151 -81.75770 34986 ft 472 kts 17°
2026-05-06 23:04 32.47075 -81.72284 34991 ft 479 kts 17°
2026-05-06 23:05 32.53032 -81.68761 34984 ft 473 kts 16°
2026-05-06 23:05 32.58925 -81.65273 34985 ft 475 kts 16°
2026-05-06 23:06 32.64838 -81.61773 34987 ft 474 kts 16°
2026-05-06 23:06 32.70758 -81.58260 34986 ft 474 kts 16°
2026-05-06 23:07 32.76660 -81.54754 34987 ft 475 kts 16°
2026-05-06 23:07 32.82590 -81.51229 34982 ft 477 kts 16°
2026-05-06 23:08 32.88515 -81.47696 34975 ft 474 kts 16°
2026-05-06 23:08 32.94408 -81.44173 34971 ft 476 kts 16°
2026-05-06 23:09 33.00294 -81.40659 34974 ft 475 kts 16°
2026-05-06 23:09 33.06196 -81.37130 34973 ft 474 kts 16°
2026-05-06 23:10 33.12079 -81.33601 34974 ft 477 kts 17°
2026-05-06 23:10 33.18034 -81.30028 34973 ft 476 kts 17°
2026-05-06 23:11 33.23915 -81.26490 34978 ft 475 kts 17°
2026-05-06 23:11 33.29837 -81.22929 34968 ft 480 kts 17°
2026-05-06 23:12 33.35790 -81.19334 34963 ft 475 kts 16°
2026-05-06 23:12 33.41674 -81.15776 34963 ft 477 kts 17°
2026-05-06 23:13 33.47644 -81.12172 34958 ft 477 kts 17°
2026-05-06 23:13 33.53592 -81.08569 34957 ft 480 kts 16°
2026-05-06 23:14 33.59524 -81.04965 34958 ft 477 kts 17°
2026-05-06 23:14 33.65462 -81.01351 34960 ft 479 kts 17°
2026-05-06 23:15 33.71415 -80.97732 34957 ft 478 kts 17°
2026-05-06 23:15 33.77348 -80.94115 34958 ft 482 kts 17°
2026-05-06 23:16 33.83331 -80.90382 34955 ft 488 kts 21°
2026-05-06 23:16 33.88979 -80.85748 34962 ft 493 kts 27°
2026-05-06 23:17 33.94394 -80.80737 34962 ft 494 kts 28°
2026-05-06 23:17 33.99873 -80.75606 34956 ft 495 kts 28°
2026-05-06 23:18 34.05288 -80.70506 34957 ft 498 kts 29°
2026-05-06 23:18 34.10751 -80.65349 34965 ft 496 kts 28°
2026-05-06 23:19 34.16185 -80.60239 34963 ft 500 kts 28°
2026-05-06 23:19 34.21619 -80.55098 34971 ft 496 kts 28°
2026-05-06 23:20 34.27044 -80.49972 34963 ft 497 kts 28°
2026-05-06 23:20 34.32555 -80.44882 34963 ft 500 kts 27°
2026-05-06 23:21 34.38060 -80.39810 34956 ft 489 kts 27°
2026-05-06 23:21 34.43492 -80.34848 34949 ft 493 kts 28°
2026-05-06 23:22 34.49020 -80.29739 34951 ft 501 kts 28°
2026-05-06 23:22 34.54502 -80.24630 34957 ft 497 kts 28°
2026-05-06 23:23 34.59983 -80.19540 34954 ft 501 kts 28°
2026-05-06 23:23 34.65547 -80.14364 34942 ft 501 kts 28°
2026-05-06 23:24 34.71018 -80.09255 34953 ft 496 kts 28°
2026-05-06 23:24 34.76567 -80.04106 34949 ft 501 kts 28°
2026-05-06 23:25 34.82091 -79.98978 34951 ft 499 kts 28°
2026-05-06 23:25 34.87641 -79.94019 34956 ft 497 kts 26°
2026-05-06 23:26 34.93242 -79.89125 34955 ft 496 kts 27°
2026-05-06 23:26 34.98859 -79.84180 34955 ft 500 kts 27°
2026-05-06 23:27 35.04455 -79.79222 34946 ft 498 kts 26°
2026-05-06 23:27 35.08378 -79.75758 34941 ft 500 kts 26°